Location: Oshawa
(43.9000°N, 78.8670°W)
Time: 01:13:39
(UTC-05:00)

Explorer 7 - Visible Passes

Search period start: 29 November 2014 00:00
Search period end: 09 December 2014 00:00
Orbit: 490 x 703 km, 50.3° (Epoch: 28 November)

Date Brightness Start Highest point End Pass type
(mag) Time Alt. Az. Time Alt. Az. Time Alt. Az.
29 Nov 7.1 18:26:02 10° NW 18:29:38 41° NNE 18:29:44 41° NNE visible
30 Nov 6.8 18:35:37 10° WNW 18:39:07 55° N 18:39:07 55° N visible
01 Dec 6.7 18:45:12 10° WNW 18:48:36 70° NW 18:48:36 70° NW visible
02 Dec 7.2 17:14:02 10° NW 17:17:38 39° NNE 17:21:13 10° E visible
02 Dec 7.2 18:54:49 10° WNW 18:58:12 55° WSW 18:58:12 55° WSW visible
03 Dec 6.8 17:23:36 10° WNW 17:27:19 53° NNE 17:31:03 10° E visible
03 Dec 8.1 19:04:34 10° WNW 19:07:58 33° SW 19:07:58 33° SW visible
04 Dec 6.5 17:33:09 10° WNW 17:36:56 80° NNE 17:40:44 10° ESE visible
04 Dec 9.0 19:14:37 10° W 19:17:21 19° SW 19:17:58 18° SSW visible
05 Dec 7.0 17:42:43 10° WNW 17:46:28 63° SSW 17:50:13 10° SE visible
05 Dec 9.8 19:25:59 10° WSW 19:26:37 10° SW 19:27:15 10° SW visible
06 Dec 8.2 17:52:24 10° WNW 17:55:53 36° SW 17:59:23 10° SSE visible
07 Dec 9.2 18:02:21 10° W 18:05:13 21° SW 18:08:06 10° S visible
08 Dec 9.9 18:13:10 10° WSW 18:14:27 11° SW 18:15:45 10° SSW visible
